NOO6342 RJTT-RJFU

Flight info

Callsign NOO6342
Flight time 1h 39m
Altitude 40000
Route TIARA GUSRO Y20 KAMMY Y204 OHGIE
Aircraft B772/H-SDE2E3FGHIJ5LORVWXY/LB1D1

Departure

Time 2026-04-25 20:49
Airport Tokyo Haneda International Airport (RJTT)

Arrival

Time 2026-04-25 22:28
Airport Nagasaki Airport (RJFU)
Time Latitude Longitude Altitude Speed Heading
2026-04-25 19:38 35.55071 139.78120 39 ft 0 kts 27°
2026-04-25 20:28 35.55061 139.78114 39 ft 4 kts 27°
2026-04-25 20:28 35.55035 139.78098 38 ft 4 kts 26°
2026-04-25 20:29 35.55009 139.78082 37 ft 4 kts 27°
2026-04-25 20:29 35.54984 139.78065 36 ft 3 kts 32°
2026-04-25 20:29 35.54969 139.78052 35 ft 3 kts 50°
2026-04-25 20:29 35.54962 139.78033 34 ft 1 kts 91°
2026-04-25 20:30 35.54965 139.78023 34 ft 0 kts 127°
2026-04-25 20:30 35.54970 139.78015 34 ft 0 kts 143°
2026-04-25 20:30 35.54980 139.78009 34 ft 2 kts 156°
2026-04-25 20:30 35.55000 139.77995 35 ft 3 kts 149°
2026-04-25 20:31 35.55004 139.77992 35 ft 0 kts 150°
2026-04-25 20:31 35.55003 139.77992 35 ft 0 kts 150°
2026-04-25 20:31 35.55003 139.77994 35 ft 0 kts 150°
2026-04-25 20:33 35.55002 139.77994 35 ft 0 kts 150°
2026-04-25 20:34 35.55001 139.77994 35 ft 0 kts 149°
2026-04-25 20:37 35.55000 139.77995 35 ft 1 kts 149°
2026-04-25 20:37 35.54973 139.78015 34 ft 6 kts 149°
2026-04-25 20:37 35.54917 139.78055 33 ft 11 kts 149°
2026-04-25 20:37 35.54837 139.78113 31 ft 15 kts 150°
2026-04-25 20:38 35.54736 139.78183 29 ft 18 kts 150°
2026-04-25 20:38 35.54618 139.78267 28 ft 20 kts 149°
2026-04-25 20:38 35.54494 139.78355 29 ft 20 kts 150°
2026-04-25 20:38 35.54367 139.78447 30 ft 21 kts 149°
2026-04-25 20:39 35.54236 139.78538 33 ft 21 kts 150°
2026-04-25 20:39 35.54107 139.78630 36 ft 21 kts 150°
2026-04-25 20:39 35.53974 139.78725 37 ft 22 kts 149°
2026-04-25 20:39 35.53884 139.78789 38 ft 22 kts 150°
2026-04-25 20:40 35.53739 139.78893 37 ft 15 kts 149°
2026-04-25 20:40 35.53639 139.78963 36 ft 17 kts 151°
2026-04-25 20:40 35.53524 139.79042 33 ft 20 kts 150°
2026-04-25 20:40 35.53409 139.79128 28 ft 15 kts 139°
2026-04-25 20:41 35.53374 139.79231 27 ft 9 kts 89°
2026-04-25 20:41 35.53400 139.79309 28 ft 10 kts 60°
2026-04-25 20:41 35.53441 139.79396 27 ft 13 kts 60°
2026-04-25 20:41 35.53493 139.79507 25 ft 16 kts 60°
2026-04-25 20:42 35.53556 139.79643 21 ft 18 kts 62°
2026-04-25 20:42 35.53614 139.79762 19 ft 15 kts 59°
2026-04-25 20:42 35.53657 139.79855 18 ft 10 kts 60°
2026-04-25 20:42 35.53699 139.79944 17 ft 13 kts 61°
2026-04-25 20:43 35.53701 139.80026 15 ft 6 kts 129°
2026-04-25 20:43 35.53653 139.80063 15 ft 9 kts 150°
2026-04-25 20:43 35.53588 139.80110 15 ft 11 kts 150°
2026-04-25 20:43 35.53509 139.80167 15 ft 14 kts 149°
2026-04-25 20:44 35.53418 139.80231 15 ft 16 kts 150°
2026-04-25 20:44 35.53316 139.80304 15 ft 17 kts 149°
2026-04-25 20:44 35.53204 139.80385 15 ft 19 kts 150°
2026-04-25 20:44 35.53083 139.80470 15 ft 20 kts 150°
2026-04-25 20:45 35.52978 139.80547 15 ft 11 kts 149°
2026-04-25 20:45 35.52897 139.80585 15 ft 13 kts 188°
2026-04-25 20:45 35.52818 139.80516 15 ft 14 kts 223°
2026-04-25 20:45 35.52737 139.80425 15 ft 16 kts 223°
2026-04-25 20:46 35.52646 139.80322 15 ft 18 kts 223°
2026-04-25 20:46 35.52571 139.80237 15 ft 12 kts 222°
2026-04-25 20:46 35.52507 139.80231 15 ft 11 kts 142°
2026-04-25 20:46 35.52451 139.80301 15 ft 7 kts 131°
2026-04-25 20:47 35.52420 139.80345 15 ft 3 kts 119°
2026-04-25 20:47 35.52422 139.80365 15 ft 4 kts 72°
2026-04-25 20:47 35.52431 139.80382 15 ft 1 kts 40°
2026-04-25 20:47 35.52432 139.80383 15 ft 0 kts 41°
2026-04-25 20:48 35.52479 139.80434 15 ft 36 kts 41°
2026-04-25 20:48 35.52864 139.80867 15 ft 111 kts 42°
2026-04-25 20:49 35.53597 139.81688 45 ft 166 kts 43°
2026-04-25 20:49 35.54442 139.82646 672 ft 168 kts 40°
2026-04-25 20:49 35.55352 139.83559 1461 ft 169 kts 42°
2026-04-25 20:49 35.56060 139.84685 1911 ft 175 kts 71°
2026-04-25 20:50 35.56142 139.86235 2200 ft 193 kts 102°
2026-04-25 20:50 35.55788 139.87898 2645 ft 209 kts 105°
2026-04-25 20:50 35.55377 139.89681 3056 ft 227 kts 106°
2026-04-25 20:50 35.54920 139.91615 3480 ft 244 kts 109°
2026-04-25 20:51 35.54025 139.93411 3994 ft 256 kts 135°
2026-04-25 20:51 35.52501 139.94574 4675 ft 261 kts 161°
2026-04-25 20:51 35.50708 139.94769 5413 ft 265 kts 185°
2026-04-25 20:51 35.48889 139.94325 6083 ft 270 kts 200°
2026-04-25 20:52 35.47315 139.93072 6736 ft 276 kts 226°
2026-04-25 20:52 35.46573 139.91791 7214 ft 278 kts 243°
2026-04-25 20:52 35.46169 139.88730 8180 ft 281 kts 276°
2026-04-25 20:52 35.46549 139.86388 8930 ft 281 kts 281°
2026-04-25 20:53 35.46964 139.84056 9637 ft 282 kts 280°
2026-04-25 20:53 35.47475 139.81746 10223 ft 289 kts 291°
2026-04-25 20:53 35.48439 139.79520 10550 ft 306 kts 302°
2026-04-25 20:53 35.49853 139.77477 10823 ft 324 kts 315°
2026-04-25 20:54 35.51571 139.75597 11113 ft 340 kts 316°
2026-04-25 20:54 35.53342 139.73552 11410 ft 355 kts 313°
2026-04-25 20:54 35.55133 139.71350 11736 ft 369 kts 312°
2026-04-25 20:54 35.56745 139.68854 12185 ft 377 kts 301°
2026-04-25 20:55 35.58009 139.66048 12809 ft 380 kts 295°
2026-04-25 20:55 35.59208 139.63167 13589 ft 381 kts 295°
2026-04-25 20:55 35.60406 139.60281 14339 ft 383 kts 295°
2026-04-25 20:55 35.61606 139.57388 15103 ft 384 kts 295°
2026-04-25 20:56 35.62818 139.54465 15939 ft 384 kts 294°
2026-04-25 20:56 35.64027 139.51544 16714 ft 385 kts 293°
2026-04-25 20:56 35.65039 139.48520 17418 ft 384 kts 284°
2026-04-25 20:56 35.65626 139.45326 18070 ft 384 kts 276°
2026-04-25 20:57 35.65800 139.42075 18786 ft 384 kts 270°
2026-04-25 20:57 35.65859 139.38763 19543 ft 385 kts 270°
2026-04-25 20:57 35.65910 139.35522 20181 ft 388 kts 269°
2026-04-25 20:57 35.65963 139.32176 20782 ft 392 kts 269°
2026-04-25 20:58 35.66016 139.28803 21377 ft 396 kts 269°
2026-04-25 20:58 35.66068 139.25430 22034 ft 397 kts 269°
2026-04-25 20:58 35.66120 139.22060 22647 ft 400 kts 269°
2026-04-25 20:58 35.66171 139.18623 23240 ft 402 kts 269°
2026-04-25 20:59 35.66222 139.15176 23755 ft 406 kts 269°
2026-04-25 20:59 35.66242 139.11752 24311 ft 406 kts 266°
2026-04-25 20:59 35.66085 139.08293 25014 ft 404 kts 264°
2026-04-25 20:59 35.65913 139.04890 25757 ft 400 kts 264°
2026-04-25 21:00 35.65747 139.01524 26502 ft 396 kts 264°
2026-04-25 21:00 35.65639 138.99286 26946 ft 395 kts 264°
2026-04-25 21:00 35.65270 138.91483 28279 ft 394 kts 264°
2026-04-25 21:01 35.65113 138.88113 28800 ft 394 kts 264°
2026-04-25 21:01 35.64959 138.84804 29387 ft 393 kts 264°
2026-04-25 21:01 35.64805 138.81473 29992 ft 391 kts 264°
2026-04-25 21:01 35.64648 138.78131 30401 ft 393 kts 264°
2026-04-25 21:02 35.64491 138.74773 30773 ft 396 kts 263°
2026-04-25 21:02 35.64331 138.71381 31215 ft 396 kts 264°
2026-04-25 21:02 35.64175 138.68059 31809 ft 393 kts 263°
2026-04-25 21:02 35.64012 138.64710 32519 ft 387 kts 263°
2026-04-25 21:03 35.63845 138.61470 33205 ft 381 kts 262°
2026-04-25 21:03 35.63673 138.58186 33783 ft 378 kts 262°
2026-04-25 21:03 35.63504 138.54970 34253 ft 378 kts 262°
2026-04-25 21:03 35.63335 138.51759 34805 ft 376 kts 261°
2026-04-25 21:04 35.63168 138.48596 35351 ft 374 kts 261°
2026-04-25 21:04 35.62999 138.45427 35963 ft 370 kts 261°
2026-04-25 21:04 35.62832 138.42267 36483 ft 367 kts 261°
2026-04-25 21:04 35.62665 138.39172 36826 ft 367 kts 261°
2026-04-25 21:05 35.62495 138.36029 37086 ft 369 kts 260°
2026-04-25 21:05 35.62325 138.32896 37378 ft 369 kts 260°
2026-04-25 21:05 35.62156 138.29765 37894 ft 365 kts 259°
2026-04-25 21:05 35.61989 138.26682 38433 ft 360 kts 259°
2026-04-25 21:06 35.61823 138.23650 38805 ft 358 kts 260°
2026-04-25 21:06 35.61654 138.20604 38999 ft 359 kts 259°
2026-04-25 21:06 35.61483 138.17529 39181 ft 360 kts 259°
2026-04-25 21:06 35.61369 138.15482 39289 ft 361 kts 259°
2026-04-25 21:07 35.61140 138.11389 39421 ft 364 kts 259°
2026-04-25 21:07 35.60965 138.08281 39587 ft 364 kts 259°
2026-04-25 21:07 35.60793 138.05209 39809 ft 364 kts 259°
2026-04-25 21:07 35.60617 138.02107 39910 ft 365 kts 259°
2026-04-25 21:08 35.60440 137.98999 39936 ft 368 kts 259°
2026-04-25 21:08 35.60080 137.92725 40164 ft 368 kts 260°
2026-04-25 21:09 35.59537 137.83337 40174 ft 370 kts 259°
2026-04-25 21:09 35.59151 137.77051 40170 ft 368 kts 259°
2026-04-25 21:10 35.58684 137.70815 40167 ft 368 kts 259°
2026-04-25 21:10 35.58215 137.64546 40171 ft 369 kts 258°
2026-04-25 21:11 35.57750 137.58324 40177 ft 368 kts 259°
2026-04-25 21:11 35.57152 137.52116 40174 ft 365 kts 252°
2026-04-25 21:12 35.55860 137.46085 40178 ft 365 kts 251°
2026-04-25 21:12 35.54764 137.41089 40176 ft 365 kts 252°
2026-04-25 21:13 35.53234 137.34123 40186 ft 365 kts 251°
2026-04-25 21:13 35.51910 137.28105 40200 ft 367 kts 251°
2026-04-25 21:14 35.50581 137.22078 40196 ft 365 kts 251°
2026-04-25 21:14 35.49254 137.16080 40195 ft 367 kts 250°
2026-04-25 21:15 35.47914 137.10037 40193 ft 367 kts 250°
2026-04-25 21:15 35.46580 137.04034 40194 ft 366 kts 251°
2026-04-25 21:16 35.45234 136.98000 40191 ft 368 kts 250°
2026-04-25 21:16 35.43883 136.91957 40189 ft 369 kts 251°
2026-04-25 21:17 35.42536 136.85942 40184 ft 367 kts 250°
2026-04-25 21:17 35.41174 136.79880 40179 ft 369 kts 251°
2026-04-25 21:18 35.39813 136.73836 40179 ft 368 kts 250°
2026-04-25 21:18 35.38444 136.67773 40173 ft 369 kts 250°
2026-04-25 21:19 35.37087 136.61774 40172 ft 367 kts 250°
2026-04-25 21:19 35.35711 136.55714 40166 ft 369 kts 251°
2026-04-25 21:20 35.34568 136.50691 40155 ft 368 kts 251°
2026-04-25 21:20 35.32962 136.43648 40154 ft 369 kts 250°
2026-04-25 21:21 35.31590 136.37640 40152 ft 367 kts 250°
2026-04-25 21:21 35.30213 136.31635 40174 ft 369 kts 250°
2026-04-25 21:22 35.28822 136.25572 40174 ft 369 kts 250°
2026-04-25 21:22 35.27438 136.19562 40164 ft 369 kts 249°
2026-04-25 21:23 35.26051 136.13553 40169 ft 369 kts 250°
2026-04-25 21:23 35.24649 136.07492 40155 ft 370 kts 250°
2026-04-25 21:24 35.23257 136.01491 40157 ft 368 kts 250°
2026-04-25 21:24 35.21859 135.95479 40152 ft 371 kts 249°
2026-04-25 21:25 35.20446 135.89416 40153 ft 371 kts 249°
2026-04-25 21:25 35.19041 135.83405 40144 ft 370 kts 249°
2026-04-25 21:26 35.17696 135.77342 40121 ft 373 kts 253°
2026-04-25 21:26 35.16704 135.71130 40128 ft 372 kts 253°
2026-04-25 21:27 35.15690 135.64944 40123 ft 371 kts 253°
2026-04-25 21:27 35.14659 135.58778 40130 ft 372 kts 253°
2026-04-25 21:28 35.13616 135.52593 40129 ft 373 kts 253°
2026-04-25 21:28 35.12568 135.46414 40125 ft 372 kts 252°
2026-04-25 21:29 35.11519 135.40259 40125 ft 373 kts 253°
2026-04-25 21:29 35.10464 135.34090 40126 ft 373 kts 252°
2026-04-25 21:30 35.09403 135.27902 40134 ft 372 kts 253°
2026-04-25 21:30 35.08519 135.22763 40141 ft 371 kts 253°
2026-04-25 21:31 35.07275 135.15562 40138 ft 374 kts 252°
2026-04-25 21:31 35.06212 135.09419 40136 ft 371 kts 253°
2026-04-25 21:32 35.05141 135.03259 40146 ft 373 kts 253°
2026-04-25 21:32 35.04070 134.97113 40133 ft 371 kts 253°
2026-04-25 21:33 35.02995 134.90967 40126 ft 372 kts 252°
2026-04-25 21:33 35.01908 134.84770 40114 ft 374 kts 253°
2026-04-25 21:34 35.00825 134.78619 40116 ft 373 kts 252°
2026-04-25 21:34 34.99735 134.72440 40109 ft 372 kts 253°
2026-04-25 21:35 34.98474 134.66393 40117 ft 369 kts 249°
2026-04-25 21:35 34.96929 134.60435 40108 ft 370 kts 249°
2026-04-25 21:36 34.95390 134.54512 40091 ft 370 kts 249°
2026-04-25 21:36 34.93844 134.48567 40108 ft 370 kts 248°
2026-04-25 21:37 34.92542 134.43568 40102 ft 370 kts 249°
2026-04-25 21:37 34.90727 134.36618 40100 ft 370 kts 249°
2026-04-25 21:38 34.89166 134.30649 40152 ft 371 kts 248°
2026-04-25 21:38 34.87604 134.24692 40146 ft 370 kts 248°
2026-04-25 21:39 34.86047 134.18770 40130 ft 370 kts 248°
2026-04-25 21:39 34.84481 134.12823 40130 ft 370 kts 248°
2026-04-25 21:40 34.82916 134.06894 40129 ft 369 kts 248°
2026-04-25 21:40 34.81339 134.00937 40123 ft 370 kts 249°
2026-04-25 21:41 34.79762 133.94989 40132 ft 370 kts 249°
2026-04-25 21:41 34.78191 133.89073 40121 ft 371 kts 248°
2026-04-25 21:42 34.76595 133.83083 40106 ft 371 kts 249°
2026-04-25 21:42 34.75013 133.77153 40125 ft 371 kts 248°
2026-04-25 21:43 34.73411 133.71167 40118 ft 371 kts 249°
2026-04-25 21:43 34.71822 133.65239 40105 ft 370 kts 248°
2026-04-25 21:44 34.70223 133.59291 40097 ft 372 kts 249°
2026-04-25 21:45 34.67825 133.50391 40099 ft 373 kts 249°
2026-04-25 21:45 34.66213 133.44420 40093 ft 371 kts 248°
2026-04-25 21:46 34.64600 133.38464 40093 ft 373 kts 248°
2026-04-25 21:46 34.62982 133.32503 40099 ft 373 kts 248°
2026-04-25 21:47 34.61367 133.26562 40102 ft 372 kts 248°
2026-04-25 21:47 34.59739 133.20590 40098 ft 374 kts 248°
2026-04-25 21:48 34.58112 133.14630 40095 ft 372 kts 248°
2026-04-25 21:48 34.56482 133.08675 40087 ft 374 kts 248°
2026-04-25 21:49 34.54840 133.02690 40087 ft 373 kts 248°
2026-04-25 21:49 34.53209 132.96756 40084 ft 374 kts 247°
2026-04-25 21:50 34.51568 132.90802 40080 ft 375 kts 247°
2026-04-25 21:50 34.49927 132.84859 40079 ft 372 kts 248°
2026-04-25 21:51 34.48286 132.78926 40072 ft 373 kts 248°
2026-04-25 21:51 34.46634 132.72969 40069 ft 373 kts 248°
2026-04-25 21:52 34.44981 132.67015 40071 ft 373 kts 248°
2026-04-25 21:52 34.43315 132.61032 40059 ft 376 kts 248°
2026-04-25 21:53 34.41658 132.55089 40060 ft 374 kts 248°
2026-04-25 21:53 34.39990 132.49121 40058 ft 375 kts 247°
2026-04-25 21:54 34.38313 132.43137 40048 ft 374 kts 248°
2026-04-25 21:54 34.36642 132.37183 40055 ft 375 kts 248°
2026-04-25 21:55 34.34968 132.31232 40070 ft 376 kts 247°
2026-04-25 21:55 34.33282 132.25252 40073 ft 375 kts 247°
2026-04-25 21:56 34.31599 132.19295 40068 ft 376 kts 248°
2026-04-25 21:56 34.29910 132.13327 40071 ft 376 kts 247°
2026-04-25 21:57 34.28212 132.07346 40056 ft 376 kts 248°
2026-04-25 21:57 34.26521 132.01398 40052 ft 375 kts 248°
2026-04-25 21:58 34.24818 131.95419 40057 ft 377 kts 247°
2026-04-25 21:58 34.23115 131.89455 40056 ft 376 kts 248°
2026-04-25 21:59 34.21409 131.83490 40055 ft 375 kts 247°
2026-04-25 21:59 34.19701 131.77536 40050 ft 377 kts 247°
2026-04-25 22:00 34.17131 131.68591 40043 ft 377 kts 247°
2026-04-25 22:00 34.15404 131.62601 40035 ft 378 kts 247°
2026-04-25 22:01 34.13673 131.56609 40032 ft 378 kts 247°
2026-04-25 22:01 34.12235 131.51639 40027 ft 379 kts 247°
2026-04-25 22:02 34.10206 131.44636 40020 ft 377 kts 247°
2026-04-25 22:02 34.08472 131.38675 40021 ft 379 kts 247°
2026-04-25 22:03 34.06726 131.32695 40033 ft 379 kts 246°
2026-04-25 22:03 34.04476 131.26978 40036 ft 379 kts 242°
2026-04-25 22:04 34.02173 131.21411 39373 ft 371 kts 241°
2026-04-25 22:04 34.01018 131.18623 38323 ft 374 kts 240°
2026-04-25 22:04 33.99855 131.15820 37460 ft 374 kts 241°
2026-04-25 22:05 33.98708 131.13058 36616 ft 374 kts 241°
2026-04-25 22:05 33.97533 131.10231 35729 ft 374 kts 241°
2026-04-25 22:05 33.96378 131.07451 34857 ft 375 kts 240°
2026-04-25 22:05 33.95218 131.04665 33977 ft 375 kts 241°
2026-04-25 22:06 33.94059 131.01881 33121 ft 375 kts 241°
2026-04-25 22:06 33.92896 130.99089 32243 ft 376 kts 242°
2026-04-25 22:06 33.91727 130.96286 31352 ft 379 kts 242°
2026-04-25 22:06 33.90527 130.93410 30560 ft 393 kts 242°
2026-04-25 22:07 33.89268 130.90398 30064 ft 403 kts 242°
2026-04-25 22:07 33.88430 130.88393 29703 ft 406 kts 242°
2026-04-25 22:07 33.86748 130.84369 28903 ft 406 kts 242°
2026-04-25 22:07 33.85480 130.81340 28316 ft 405 kts 242°
2026-04-25 22:08 33.84210 130.78308 27724 ft 405 kts 242°
2026-04-25 22:08 33.82949 130.75302 27131 ft 408 kts 242°
2026-04-25 22:08 33.81683 130.72286 26529 ft 408 kts 242°
2026-04-25 22:08 33.80399 130.69228 25918 ft 408 kts 242°
2026-04-25 22:09 33.79127 130.66205 25320 ft 410 kts 242°
2026-04-25 22:09 33.77835 130.63135 24693 ft 413 kts 242°
2026-04-25 22:09 33.76536 130.60053 24066 ft 411 kts 242°
2026-04-25 22:09 33.75262 130.57030 23459 ft 410 kts 242°
2026-04-25 22:10 33.73974 130.53979 22826 ft 410 kts 242°
2026-04-25 22:10 33.72685 130.50926 22190 ft 408 kts 242°
2026-04-25 22:10 33.71418 130.47928 21588 ft 403 kts 242°
2026-04-25 22:10 33.70145 130.44920 20973 ft 401 kts 242°
2026-04-25 22:11 33.68767 130.42053 20356 ft 399 kts 234°
2026-04-25 22:11 33.66993 130.39546 19738 ft 397 kts 224°
2026-04-25 22:11 33.64867 130.37488 19142 ft 394 kts 214°
2026-04-25 22:11 33.62483 130.35860 18532 ft 391 kts 209°
2026-04-25 22:12 33.60088 130.34364 17935 ft 390 kts 208°
2026-04-25 22:12 33.57690 130.32881 17331 ft 389 kts 208°
2026-04-25 22:12 33.55291 130.31400 16709 ft 386 kts 208°
2026-04-25 22:12 33.53680 130.30408 16304 ft 384 kts 208°
2026-04-25 22:13 33.50549 130.28482 15490 ft 380 kts 207°
2026-04-25 22:13 33.48212 130.27048 14906 ft 377 kts 207°
2026-04-25 22:13 33.45883 130.25619 14279 ft 373 kts 207°
2026-04-25 22:13 33.43583 130.24211 13691 ft 370 kts 207°
2026-04-25 22:14 33.41325 130.22829 13108 ft 367 kts 207°
2026-04-25 22:14 33.39064 130.21446 12486 ft 365 kts 207°
2026-04-25 22:14 33.36800 130.20062 11877 ft 362 kts 207°
2026-04-25 22:14 33.34551 130.18736 11287 ft 359 kts 202°
2026-04-25 22:15 33.32184 130.17914 10727 ft 355 kts 189°
2026-04-25 22:15 33.29777 130.17642 10455 ft 343 kts 184°
2026-04-25 22:15 33.27403 130.17471 10224 ft 332 kts 184°
2026-04-25 22:16 33.22978 130.17177 9655 ft 304 kts 183°
2026-04-25 22:16 33.20920 130.17046 9319 ft 289 kts 183°
2026-04-25 22:16 33.18951 130.16919 9074 ft 275 kts 182°
2026-04-25 22:16 33.17041 130.16797 8810 ft 272 kts 182°
2026-04-25 22:17 33.15176 130.16678 8541 ft 268 kts 182°
2026-04-25 22:17 33.13306 130.16559 8296 ft 265 kts 182°
2026-04-25 22:17 33.11477 130.16443 8039 ft 261 kts 182°
2026-04-25 22:17 33.09665 130.16327 7788 ft 259 kts 182°
2026-04-25 22:18 33.07870 130.16214 7541 ft 259 kts 181°
2026-04-25 22:18 33.06058 130.16098 7307 ft 258 kts 181°
2026-04-25 22:18 33.04292 130.15987 7076 ft 256 kts 181°
2026-04-25 22:18 33.02507 130.15874 6804 ft 255 kts 181°
2026-04-25 22:19 33.00724 130.15759 6524 ft 254 kts 181°
2026-04-25 22:19 32.98965 130.15648 6269 ft 251 kts 181°
2026-04-25 22:19 32.97240 130.15540 6014 ft 249 kts 181°
2026-04-25 22:19 32.95500 130.15430 5757 ft 248 kts 181°
2026-04-25 22:20 32.93771 130.15320 5501 ft 246 kts 181°
2026-04-25 22:20 32.92079 130.15213 5243 ft 245 kts 181°
2026-04-25 22:20 32.90380 130.15105 4986 ft 244 kts 180°
2026-04-25 22:20 32.88686 130.14999 4797 ft 240 kts 181°
2026-04-25 22:21 32.87035 130.14896 4661 ft 234 kts 180°
2026-04-25 22:21 32.85418 130.14795 4519 ft 229 kts 180°
2026-04-25 22:21 32.83857 130.14699 4372 ft 224 kts 180°
2026-04-25 22:21 32.82304 130.14601 4223 ft 219 kts 180°
2026-04-25 22:22 32.80806 130.14355 4092 ft 214 kts 195°
2026-04-25 22:22 32.79537 130.13477 3932 ft 211 kts 219°
2026-04-25 22:22 32.78522 130.12250 3795 ft 205 kts 226°
2026-04-25 22:22 32.77804 130.10843 3667 ft 197 kts 249°
2026-04-25 22:23 32.77602 130.09309 3531 ft 182 kts 272°
2026-04-25 22:23 32.77854 130.07864 3412 ft 174 kts 288°
2026-04-25 22:23 32.78225 130.06508 3294 ft 171 kts 288°
2026-04-25 22:23 32.78647 130.05246 3096 ft 159 kts 307°
2026-04-25 22:24 32.79404 130.04297 2908 ft 158 kts 322°
2026-04-25 22:24 32.80226 130.03467 2711 ft 156 kts 322°
2026-04-25 22:24 32.81046 130.02620 2514 ft 154 kts 321°
2026-04-25 22:24 32.81843 130.01778 2319 ft 154 kts 321°
2026-04-25 22:25 32.82647 130.00929 2123 ft 152 kts 321°
2026-04-25 22:25 32.83437 130.00095 1928 ft 152 kts 321°
2026-04-25 22:25 32.84222 129.99266 1729 ft 149 kts 321°
2026-04-25 22:25 32.84994 129.98448 1537 ft 149 kts 321°
2026-04-25 22:26 32.85770 129.97627 1339 ft 149 kts 321°
2026-04-25 22:26 32.86538 129.96812 1141 ft 149 kts 320°
2026-04-25 22:26 32.87311 129.95991 943 ft 148 kts 320°
2026-04-25 22:26 32.88084 129.95174 743 ft 149 kts 320°
2026-04-25 22:27 32.88856 129.94360 548 ft 148 kts 320°
2026-04-25 22:27 32.89631 129.93533 357 ft 148 kts 319°
2026-04-25 22:27 32.90391 129.92729 164 ft 148 kts 319°
2026-04-25 22:27 32.91162 129.91916 22 ft 139 kts 319°
2026-04-25 22:28 32.91740 129.91298 16 ft 86 kts 318°
2026-04-25 22:28 32.92049 129.90967 17 ft 32 kts 318°
2026-04-25 22:28 32.92143 129.90868 17 ft 16 kts 318°
2026-04-25 22:28 32.92232 129.90775 17 ft 18 kts 318°
2026-04-25 22:29 32.92322 129.90680 17 ft 13 kts 322°
2026-04-25 22:29 32.92409 129.90703 17 ft 15 kts 46°
2026-04-25 22:29 32.92450 129.90788 17 ft 10 kts 88°
2026-04-25 22:30 32.92332 129.90939 17 ft 15 kts 138°
2026-04-25 22:30 32.92250 129.91028 18 ft 16 kts 137°
2026-04-25 22:30 32.92157 129.91127 17 ft 18 kts 138°
2026-04-25 22:30 32.92092 129.91197 17 ft 19 kts 138°
2026-04-25 22:31 32.91950 129.91348 17 ft 21 kts 138°
2026-04-25 22:31 32.91834 129.91472 18 ft 22 kts 138°
2026-04-25 22:31 32.91714 129.91602 17 ft 24 kts 137°
2026-04-25 22:31 32.91585 129.91736 17 ft 25 kts 138°
2026-04-25 22:32 32.91452 129.91881 17 ft 26 kts 138°
2026-04-25 22:32 32.91351 129.91989 18 ft 17 kts 138°
2026-04-25 22:32 32.91288 129.92056 19 ft 4 kts 135°
2026-04-25 22:32 32.91290 129.92073 19 ft 2 kts 55°
2026-04-25 22:33 32.91318 129.92110 20 ft 7 kts 47°
2026-04-25 22:33 32.91345 129.92145 20 ft 4 kts 47°
2026-04-25 22:33 32.91365 129.92171 21 ft 2 kts 48°
2026-04-25 22:33 32.91371 129.92178 21 ft 0 kts 48°